Regional Weather Roundup
Issued by NWS

Home | Current Version | Previous Version | Text Only | Print | Product List | Glossary Off
Versions: 1 2 3 4 5 6 7 8 9 10 11 12 13 14 15 16 17 18 19 20 21 22 23 24 25 26 27 28 29 30 31 32 33 34 35 36 37 38 39 40 41 42 43 44 45 46 47 48 49 50

000
ASUS43 KDTX 300701
RWRMI
MICHIGAN HOURLY REGIONAL WEATHER ROUNDUP
NATIONAL WEATHER SERVICE DETROIT/PONTIAC MI
300 AM EDT THU JUL 30 2015

NOTE: "FAIR" INDICATES FEW OR NO CLOUDS BELOW 12,000 FEET WITH NO
SIGNIFICANT WEATHER AND/OR OBSTRUCTION TO VISIBILITY.

MIZ047>049-052>055-059>063-066>070-074>076-081>083-300800-
SOUTHEAST LOWER MICHIGAN

CITY           SKY/WX    TMP DP  RH WIND       PRES   REMARKS
ADRIAN         PTCLDY    65  58  78 W3        29.96F
ALMA           CLEAR     64  58  81 SW5       29.92F
ANN ARBOR      CLEAR     62  58  86 SW3       29.93F
BAD AXE        PTCLDY    64  57  78 SW3       29.88S
CARO           PTCLDY    64  57  78 SW3       29.89F
DETROIT CITY   CLEAR     69  58  67 W8        29.91F
DETROIT        PTCLDY    67  58  72 SW6       29.93F
FLINT          CLEAR     69  56  62 W8        29.92S
GROSSE ILE     CLEAR     70  61  73 W3        29.91F
HILLSDALE      PTCLDY    67  57  71 W7        29.97F
HOWELL         CLEAR     64  57  77 W7        29.94S

CITY           SKY/WX    TMP DP  RH WIND       PRES   REMARKS
JACKSON        CLEAR     64  56  75 W7        29.95F
LAMBERTVILLE   PTCLDY    66  60  80 CALM      29.95F
LANSING        CLEAR     68  57  68 W7        29.94F
LAPEER         FAIR      66  57  71 W3        29.91S
MASON          CLEAR     65  56  73 W5        29.95S
MONROE         CLEAR     65  60  84 W3        29.93F
MT. CLEMENS    CLEAR     67  59  77 SW7       29.88F
PONTIAC        CLEAR     68  57  68 W12       29.91F
PORT HOPE        N/A     67  60  78 SW7       29.84F
PORT HURON     CLEAR     57  57 100 CALM      29.89F FOG
TRI CITIES     CLEAR     65  57  75 W7        29.90F
MIDLAND        FAIR      65  55  70 SW3       29.89S
TROY           CLEAR     67  60  78 MISG      29.93S
SAGINAW HB     CLEAR     64  57  77 SW7       29.89F
$$
MIZ043>046-050>051-056>058-064>065-071>073-077>080-300800-
SOUTHWEST LOWER MICHIGAN

CITY           SKY/WX    TMP DP  RH WIND       PRES   REMARKS
BATTLE CREEK   CLEAR     68  57  68 W9        29.97S
BENTON HARBOR  CLEAR     72  61  68 W12       29.98F
BIG RAPIDS     CLEAR     65  57  75 W7        29.91F
COLDWATER      PTCLDY    62  56  79 SW5       29.98S
FREMONT        FAIR      67  57  72 W5        29.92F
HOLLAND        CLEAR     73  59  61 W9G20     29.96F
GRAND RAPIDS   CLEAR     67  59  75 W8        29.94F
IONIA          FAIR      64  58  81 W6        29.93F
KALAMAZOO      CLEAR     68  57  68 W7        29.97F
LUDINGTON      CLEAR     73  62  67 W9G17     29.91F
MARSHALL       CLEAR     63  56  78 CALM      29.96S
MOUNT PLEASANT CLEAR     67  56  67 SW5       29.90S
MUSKEGON       CLEAR     73  50  44 W14       29.93F
SOUTH HAVEN    CLEAR     72  62  71 W7        29.97F
$$
MIZ016>042-300800-
NORTHERN LOWER MICHIGAN

CITY           SKY/WX    TMP DP  RH WIND       PRES   REMARKS
ALPENA         PTCLDY    68  55  63 SW6       29.82F
BEAVER ISLAND  CLOUDY    70  62  74 W16       29.79F
BELLAIRE       CLOUDY    72  58  60 CALM      29.83F
CADILLAC       CLEAR     65  55  70 W7        29.90S
CHARLEVOIX     PTCLDY    73  58  59 W18G26    29.83F
FRANKFORT      CLEAR     72  61  68 W12       29.87F
GAYLORD        PTCLDY    67  58  72 SW8       29.85
GRAYLING       CLEAR     65  56  73 W6        29.87F
HARBOR SPRINGS PTCLDY    73  60  64 W10G17    29.79F
HOUGHTON LAKE  CLEAR     69  58  67 W8        29.88F
MANISTEE       CLEAR     72  57  60 W13       29.88F
OSCODA         CLEAR     65  55  67 SW8       29.84S
PELLSTON       PTCLDY    68  59  73 NW3       29.80F
ROGERS CITY    MOCLDY    67  59  75 SW8       29.80F
TRAVERSE CITY  PTCLDY    71  56  58 SW6       29.83F
$$
MIZ007>008-015-300800-
EASTERN UPPER MICHIGAN

CITY           SKY/WX    TMP DP  RH WIND       PRES   REMARKS
KINROSS        CLOUDY    70  55  60 SW6       29.75F
MACKINAC ISLAN CLOUDY    71  60  67 SW7G17    29.77F
MUNISING         N/A     72  55  55 SW9       29.75F
$$
MIZ004>006-011>014-085-300800-
CENTRAL UPPER MICHIGAN

CITY           SKY/WX    TMP DP  RH WIND       PRES   REMARKS
ESCANABA       CLEAR     70  54  56 W10       29.80F
MENOMINEE      CLEAR     68  54  60 W5        29.85F
SAWYER-GWINN   CLEAR     66  54  66 SW9       29.79S
$$
MIZ001>003-009>011-084-300800-
WESTERN UPPER MICHIGAN

CITY           SKY/WX    TMP DP  RH WIND       PRES   REMARKS
IRON MOUNTAIN  CLEAR     68  54  60 W9        29.83F
HOUGHTON       PTCLDY    67  53  61 W23G32    29.74S
COPPER HARBOR    N/A     69  54  58 NW15G29   29.69S
IRONWOOD       CLEAR     66  54  63 W13       29.83S
$$

ABBREVIATIONS USED IN REMARKS
   TC - TEMPERATURE IN CELSIUS
  WCI - WIND CHILL INDEX
   HX - HEAT INDEX
  VSB - VISIBILITY



USA.gov is the U.S. government's official web portal to all federal, state and local government web resources and services.